Regional Weather Roundup
Issued by NWS

Home | Current Version | Previous Version | Text Only | Print | Product List | Glossary On
Versions: 1 2 3 4 5 6 7 8 9 10 11 12 13 14 15 16 17 18 19 20 21 22 23 24 25 26 27 28 29 30 31 32 33 34 35 36 37 38 39 40 41 42 43 44 45 46 47 48 49 50
000
ASUS43 KMKX 271100
RWRWI

WISCONSIN REGIONAL WEATHER ROUNDUP
NATIONAL WEATHER SERVICE MILWAUKEE/SULLIVAN WI
500 AM CST SAT DEC 27 2014

NOTE: "FAIR" INDICATES FEW OR NO CLOUDS BELOW 12,000 FEET WITH NO
SIGNIFICANT WEATHER AND/OR OBSTRUCTIONS TO VISIBILITY.

WIZ001-002-006>008-014>016-023>028-271200-
NORTHWEST WISCONSIN

CITY           SKY/WX    TMP DP  RH WIND       PRES   REMARKS
SUPERIOR ARPT  CLOUDY    25  19  78 N8        30.03F WCI  16
ASHLAND        LGT SNOW  26  25  96 N10       29.99F FOG     WCI  16
HAYWARD        LGT SNOW  27  23  85 N9        29.95F VSB 1   WCI  18
SIREN          LGT SNOW  25  23  93 N6        30.00R WCI  18
CUMBERLAND     LGT SNOW  27  23  86 N10G17    29.94F WCI  17
RICE LAKE      LGT SNOW  28  26  91 N8        29.96R WCI  20
CHETEK         LGT SNOW  28  27  94 CALM      29.94S
LADYSMITH      LGT SNOW  29  28  93 N10       29.92F WCI  20
EAU CLAIRE     LGT SNOW  29  26  89 N10       29.88F FOG     WCI  20
MENOMONIE      LGT SNOW  30  28  94 N10       29.91F WCI  21
NEW RICHMOND   LGT SNOW  26  25  99 N12       29.97S WCI  15
OSCEOLA        LGT SNOW  25  25 100 NW7       30.03R WCI  18
$$

WIZ003>005-009-010-017-018-271200-
NORTH CENTRAL WISCONSIN

CITY           SKY/WX    TMP DP  RH WIND       PRES   REMARKS
MANITOWISH WTR LGT SNOW  27  27 100 NE5       29.92F VSB 1   WCI  22
ARBOR VITAE    LGT SNOW  32  30  94 NE5       29.90F WCI  27
WOODRUFF       LGT SNOW  32  30  94 NE5       29.90F WCI  27
RHINELANDER    LGT SNOW  28  27  96 NE5       29.88F FOG     WCI  23
EAGLE RIVER    LGT SNOW  29  29 100 NE5       29.91F VSB 1   WCI  23
LAND O LAKES   LGT SNOW  29  28  96 NE5       29.93F WCI  24
PHILLIPS       LGT SNOW  28  26  95 N10G17    29.89F WCI  18
TOMAHAWK       LGT SNOW  29  28  95 CALM      29.88F
MEDFORD        MIX PCPN  29  28  96 NE8       29.86F VSB 3/4 WCI  21
MERRILL        LGT SNOW  31  31 100 NE3       29.88F
$$

WIZ029-030-035-036-043>047-271200-
CENTRAL WISCONSIN

CITY           SKY/WX    TMP DP  RH WIND       PRES   REMARKS
WAUSAU         LGT SNOW  32  30  92 E5        29.86S FOG     WCI  27
MOSINEE        LGT SNOW  32  32 100 CALM      29.89R
MARSHFIELD     LGT SNOW  33  31  92 E8        29.84F FOG     WCI  26
STEVENS POINT  MIX PCPN  31  31 100 E3        29.89R VSB 1
WAUPACA        FOG       35  34  96 CALM      29.89R VSB 3/4
WAUTOMA        FOG       34  34 100 NE5       29.88F VSB 1   WCI  30
WISC RAPIDS    LGT RAIN  33  31  92 E6        29.87F FOG     WCI  28
CAMP DOUGLAS   LGT RAIN  32  32 100 E2        29.85F FOG
$$

WIZ011>013-019>022-031-037>040-048>050-271200-
NORTHEAST WISCONSIN

CITY           SKY/WX    TMP DP  RH WIND       PRES   REMARKS
ANTIGO         FLURRIES  31  30  99 NE5       29.87F WCI  26
SHAWANO        FOG       34  33  96 E5        29.91F VSB 1/4 WCI  30
OCONTO         CLOUDY    33  33 100 NE5       29.91F VSB 1/2 WCI  29
STURGEON BAY   CLOUDY    37  36  93 E7        29.91F VSB 1/4 WCI  32
GREEN BAY      FOG       34  34 100 NE6       29.90F VSB 1/4 WCI  29
MANITOWOC      NOT AVBL
APPLETON       NOT AVBL
CLINTONVILLE   FOG       32  32 100 NE3       29.90S VSB 1/2
OSHKOSH        CLOUDY    35  33  92 CALM      29.88R FOG
$$

WIZ032>034-041-042-053>061-271200-
SOUTHWEST WISCONSIN

CITY           SKY/WX    TMP DP  RH WIND       PRES   REMARKS
LA CROSSE      LGT SNOW  33  32  96 NW6       29.87R FOG     WCI  28
SPARTA         RAIN      33  33 100 E5        29.86F WCI  28
VIROQUA        CLOUDY    33  33 100 CALM      29.84F
BOSCOBEL       CLOUDY    35  33  92 CALM      29.87F FOG
PRAIRIE DU CHI LGT RAIN  34  32  94 CALM      29.87F
PLATTEVILLE    CLOUDY    39  38  97 SE3       29.85F
$$

WIZ056-057-062-063-064-067-068-271200-
SOUTH CENTRAL WISCONSIN

CITY           SKY/WX    TMP DP  RH WIND       PRES   REMARKS
REEDSBURG      RAIN      32  32  99 E3        29.85F
BARABOO/DELLS  LGT RAIN  32  32 100 CALM      29.87F VSB 1
LONE ROCK      CLOUDY    38  33  82 CALM      29.86F HAZE
MINERAL POINT  CLOUDY    41  39  93 SE7       29.84F FOG
MADISON        CLOUDY    40  38  93 S5        29.86F FOG
MIDDLETON      CLOUDY    38  38  99 NE3       29.86F
WATERTOWN      CLOUDY    42  42 100 S5        29.89R FOG
MONROE         LGT RAIN  43  43 100 S15       29.86F
JANESVILLE     CLOUDY    46  43  87 S9        29.89R
$$

WIZ051-052-058>065-066-070>072-271200-
SOUTHEAST WISCONSIN

CITY           SKY/WX    TMP DP  RH WIND       PRES   REMARKS
MILWAUKEE      CLOUDY    45  41  86 S9        29.91F
WAUKESHA       CLOUDY    41  41 100 S6        29.90F
MILWAUKEE/TIMM CLOUDY    43  41  93 SE7       29.88F
RACINE         PTCLDY    42  39  89 S7        29.93F
BURLINGTON     CLOUDY    43  41  93 SW8       29.92S
KENOSHA        MOCLDY    45  42  89 S12       29.92F
FOND DU LAC    CLOUDY    37  35  92 CALM      29.88F
SHEBOYGAN      FOG       35  35 100 CALM      29.89F VSB 1/2
WEST BEND      CLOUDY    37  36  93 CALM      29.88F FOG
JUNEAU         CLOUDY    38  38  99 SE9       29.89S FOG     WCI  31
$$

LSZ147-162-271200-
LAKE SUPERIOR

STATION/POSITION TIME  TEMP    WIND        PRES    WAVE
                       AIR SEA DIR/SP/G            HT/PER
                 (UTC) (F)     (DEG/KT/KT) (MB)    (FT/S)
DEVILS ISLAND    1000   29      30/ 12/ 14 1018.4F
PORT WING        1000   28     360/ 10/ 14 1017.6F
SAXON HARBOR     1000   31      30/ 12/ 14 1016.3F
$$

LMZ867-665-643>646-271200-
LAKE MICHIGAN

STATION/POSITION TIME  TEMP    WIND        PRES    WAVE
                       AIR SEA DIR/SP/G            HT/PER
                 (UTC) (F)     (DEG/KT/KT) (MB)    (FT/S)
CHAMBERS ISLAND  1000   34      30/  5/  7 1014.9F
NORTHPORT PIER   1000   35      70/  4/  8 1014.9F
SISTER BAY       0943             CALM       N/A
ALGOMA LAKESHORE 0930             CALM       N/A
KEWAUNEE LAKESHO 1000   38      40/  1/  3 1012.8F
SHEBOYGAN LAKESH 1000   39 39  340/  1/  2 1014.2F
PORT WASHINGTON  1020   39      80/  2/ 23 1013.2F
MILWAUKEE LAKESH 1000   40     150/  8/  9   N/A
KENOSHA   LAKESH 1000   39     180/ 11/ 13 1013.9F
$$

TC  - TEMPERATURE IN CELSIUS
VSB - VISIBILITY IN STATUTE MILES
WCI - WIND CHILL INDEX
HX  - HEAT INDEX



USA.gov is the U.S. government's official web portal to all federal, state and local government web resources and services.